Overview Statistics Trail Chart Weather Telemetry Raw packets
 

This is the latest recevied weather packets stored in our database for station/object WI0K. If no packets are shown the sender has not sent any weather packets the latest 10 day(s).

<< 17 18 19 20 21 22 23 >>
Time Temp. Humidity Pressure Rain* Wind** Luminosity Snow
1788551204 31.67° C 20% 1017.6 hPa 0 mm - 890 W/m² -
1788550903 31.67° C 20% 1017.6 hPa 0 mm - 895 W/m² -
1788550603 31.11° C 22% 1017.6 hPa 0 mm - 900 W/m² -
1788550302 31.67° C 20% 1017.6 hPa 0 mm - 905 W/m² -
1788550001 31.67° C 21% 1017.7 hPa 0 mm - 911 W/m² -
1788549700 31.11° C 21% 1017.7 hPa 0 mm - 914 W/m² -
1788549400 31.11° C 20% 1017.8 hPa 0 mm - 918 W/m² -
1788549099 31.11° C 21% 1017.8 hPa 0 mm - 919 W/m² -
1788548798 31.11° C 22% 1017.8 hPa 0 mm - 922 W/m² -
1788548497 31.11° C 22% 1017.8 hPa 0 mm - 923 W/m² -
1788548196 31.11° C 24% 1017.8 hPa 0 mm - 924 W/m² -
1788547907 31.11° C 24% 1017.9 hPa 0 mm - 922 W/m² -
1788547595 30.56° C 24% 1018.1 hPa 0 mm - 922 W/m² -
1788547294 31.11° C 24% 1018.1 hPa 0 mm - 922 W/m² -
1788546993 31.11° C 24% 1018.1 hPa 0 mm - 918 W/m² -
1788546692 31.11° C 23% 1018.2 hPa 0 mm - 916 W/m² -
1788546391 30.56° C 26% 1018.2 hPa 0 mm - 913 W/m² -
1788546091 30° C 26% 1018.2 hPa 0 mm - 911 W/m² -
1788545790 30.56° C 25% 1018.3 hPa 0 mm - 909 W/m² -
1788545489 30.56° C 25% 1018.3 hPa 0 mm - 902 W/m² -
1788545188 30.56° C 25% 1018.4 hPa 0 mm - 895 W/m² -
1788544888 30° C 25% 1018.5 hPa 0 mm - 895 W/m² -
1788544587 30° C 26% 1018.5 hPa 0 mm - 891 W/m² -
1788544286 30° C 26% 1018.5 hPa 0 mm - 884 W/m² -
1788543986 30° C 26% 1018.5 hPa 0 mm - 880 W/m² -

* Rain latest hour (hover to see other rain measurements)
** Current wind speed in m/s (hover to see current wind gust speed)